AEHF-3 (USA 246)

Last updated on Sat Apr 13 2024 01:02:38 GMT+0100 (British Summer Time)

1 39256U 13050A 24103.53521424 .00000126 00000+0 00000+0 0 9997 2 39256 3.3154 73.1546 0047255 183.2078 342.4546 1.00272896 38702
UTC large
Height (km)
Speed (km/s)
/
Latitude / Longitude
Inclination (degrees)
Orbital Period (minutes)
Azimuth
Elevation
Range (km)
Doppler Factor

Next 0 passes for location: London (51.5072 / 0.1276)

Sorry there are no passes over London.